Location: Newark
(25.4297°S, 49.2719°W)
Time: 21:38:19
(UTC+00:00)

Vanguard 1 Rocket - Pass Details

Date: 21 November 2019
Orbit: 650 x 4226 km, 34.3° (Epoch: 09 December)

Event Time Altitude Azimuth Distance (km) Brightness Sun altitude
Rises 16:14:20 0° 299° (WNW) 6,122 11.9 72.7°
Reaches altitude 10° 16:17:38 10° 299° (WNW) 5,480 11.8 71.9°
Maximum altitude 16:36:44 89° 27° (NNE) 3,904 12.2 67.7°
Drops below altitude 10° 17:03:42 10° 113° (ESE) 7,252 11.8 61.7°
Sets 17:08:56 0° 113° (ESE) 8,061 11.9 60.5°
